Owatonna, MN

2:56 PM CDT on June 27, 2017 (GMT -0500)
Owatonna Degner Regional

Weather History for KOWA - May, 2009

Change the Weather History Date:

Thursday, May 14, 2009

  Actual Average Record
Temperature  
Mean Temperature 60 °F -  
Max Temperature 66 °F 70 °F 100 °F (2013)
Min Temperature 55 °F 45 °F 33 °F (2014)
Degree Days  
Heating Degree Days 4    
Growing Degree Days 10 (Base 50)    
Moisture  
Dew Point 47 °F    
Average Humidity 58    
Maximum Humidity 77    
Minimum Humidity 46    
Precipitation  
Precipitation 0.00 in - - ()
Sea Level Pressure  
Sea Level Pressure 30.05 in    
Wind  
Wind Speed 13 mph (SW)    
Max Wind Speed 23 mph    
Max Gust Speed 26 mph    
Visibility 10 miles    
Events      
Averages and records for this station are not official NWS values.
T = Trace of Precipitation, MM = Missing Value Source: NWS Daily Summary

Daily Weather History Graph

Daily Weather History Graph

Search for Another Location

Airport or City:

Trip Planner

Search our weather history database for the weather conditions in past years. The results will help you decide how hot, cold, wet, or windy it might be!

Date:

Astronomy

May. 14, 2009 Rise Set
Actual Time 5:47 AM CDT 8:32 PM CDT
Civil Twilight 5:14 AM CDT 9:05 PM CDT
Nautical Twilight 4:31 AM CDT 9:47 PM CDT
Astronomical Twilight 3:43 AM CDT 10:36 PM CDT
Moon 12:49 AM CDT (5/14) 9:57 AM CDT (5/14)
Length of Visible Light 15h 51m
Length of Day
14h 44m
Waning Gibbous, 74% of the Moon is Illuminated
May 14
Waning Gibbous
May 17
Last Quarter
May 24
New
May 30
First Quarter
Jun 7
Full

Hourly Weather History & Observations

Time (CDT) Temp. Dew Point Humidity Pressure Visibility Wind Dir Wind Speed Gust Speed Precip Events Conditions
10:55 AM - - N/A% 30.03 in - North - - N/A   Unknown
11:16 AM 55.4 °F 46.4 °F 72% 30.05 in 10.0 mi West 17.3 mph 20.7 mph N/A   Unknown
11:36 AM 55.4 °F 46.4 °F 72% 30.06 in 10.0 mi West 18.4 mph 21.9 mph N/A   Scattered Clouds
11:56 AM 55.4 °F 46.4 °F 72% 30.07 in 10.0 mi West 17.3 mph - N/A   Scattered Clouds
12:16 PM 57.2 °F 46.4 °F 67% 30.08 in 10.0 mi WSW 17.3 mph 24.2 mph N/A   Scattered Clouds
12:36 PM 57.2 °F 46.4 °F 67% 30.09 in 10.0 mi West 17.3 mph 25.3 mph N/A   Scattered Clouds
12:57 PM 59.0 °F 46.4 °F 63% 30.09 in 10.0 mi WSW 19.6 mph - N/A   Scattered Clouds
1:16 PM 59.0 °F 46.4 °F 63% 30.09 in 10.0 mi West 17.3 mph 23.0 mph N/A   Scattered Clouds
1:36 PM 60.8 °F 46.4 °F 59% 30.10 in 10.0 mi West 23.0 mph 26.5 mph N/A   Clear
1:57 PM 60.8 °F 46.4 °F 59% 30.10 in 10.0 mi WSW 18.4 mph 21.9 mph N/A   Clear
2:16 PM 62.6 °F 46.4 °F 55% 30.10 in 10.0 mi West 19.6 mph 23.0 mph N/A   Clear
2:36 PM 60.8 °F 46.4 °F 59% 30.10 in 10.0 mi West 15.0 mph 24.2 mph N/A   Clear
2:56 PM 62.6 °F 46.4 °F 55% 30.09 in - West 19.6 mph 25.3 mph N/A   Clear
3:16 PM 64.4 °F 46.4 °F 52% 30.09 in 10.0 mi West 13.8 mph 24.2 mph N/A   Clear
3:36 PM 64.4 °F 44.6 °F 49% 30.08 in 10.0 mi West 11.5 mph 23.0 mph N/A   Clear
3:56 PM 66.2 °F 44.6 °F 46% 30.08 in 10.0 mi West 18.4 mph 21.9 mph N/A   Clear
4:16 PM 64.4 °F 44.6 °F 49% 30.07 in 10.0 mi WSW 10.4 mph 18.4 mph N/A   Clear
4:36 PM 66.2 °F 44.6 °F 46% 30.06 in 10.0 mi West 5.8 mph - N/A   Clear
4:56 PM 66.2 °F 44.6 °F 46% 30.05 in 10.0 mi West 8.1 mph - N/A   Clear
5:16 PM 66.2 °F 44.6 °F 46% 30.05 in 10.0 mi WNW 4.6 mph - N/A   Clear
5:36 PM 66.2 °F 44.6 °F 46% 30.04 in 10.0 mi Calm Calm - N/A   Clear
5:56 PM 66.2 °F 44.6 °F 46% 30.03 in 10.0 mi Calm Calm - N/A   Clear
6:16 PM 66.2 °F 44.6 °F 46% 30.03 in 10.0 mi Calm Calm - N/A   Clear
6:36 PM 66.2 °F 44.6 °F 46% 30.02 in 10.0 mi Calm Calm - N/A   Clear
6:56 PM 66.2 °F 44.6 °F 46% 30.01 in 10.0 mi Calm Calm - N/A   Clear
7:16 PM 66.2 °F 44.6 °F 46% 30.01 in 10.0 mi Calm Calm - N/A   Clear
7:36 PM 66.2 °F 46.4 °F 49% 30.01 in 10.0 mi ESE 3.5 mph - N/A   Clear
7:56 PM 66.2 °F 44.6 °F 46% 30.01 in 10.0 mi South 3.5 mph - N/A   Clear
8:16 PM 64.4 °F 44.6 °F 49% 30.01 in 10.0 mi South 5.8 mph - N/A   Clear
8:36 PM 62.6 °F 46.4 °F 55% 30.01 in 10.0 mi SSE 4.6 mph - N/A   Clear
8:56 PM 62.6 °F 48.2 °F 59% 30.00 in 10.0 mi SE 4.6 mph - N/A   Clear
9:16 PM 60.8 °F 48.2 °F 63% 30.01 in 10.0 mi SE 5.8 mph - N/A   Clear
9:36 PM 60.8 °F 48.2 °F 63% 30.01 in 10.0 mi SE 5.8 mph - N/A   Clear
9:56 PM 60.8 °F 50.0 °F 68% 30.01 in 10.0 mi SSE 6.9 mph - N/A   Clear
10:16 PM 60.8 °F 51.8 °F 72% 30.02 in 10.0 mi SSE 5.8 mph - N/A   Clear
10:36 PM 60.8 °F 51.8 °F 72% 30.02 in 10.0 mi SSE 8.1 mph - N/A   Clear
10:56 PM 60.8 °F 51.8 °F 72% 30.03 in 10.0 mi SSE 9.2 mph - N/A   Clear
11:16 PM 60.8 °F 53.6 °F 77% 30.03 in 10.0 mi SSE 9.2 mph - N/A   Clear
11:36 PM 60.8 °F 53.6 °F 77% 30.03 in 10.0 mi South 9.2 mph - N/A   Clear
11:56 PM 60.8 °F 53.6 °F 77% 30.03 in 10.0 mi SSE 9.2 mph - N/A   Clear